sat.trackr.live / text

‹ back to catalog

CONNECTA IOT-1

NORAD 60472 · 2024-149E

PAYLOAD ACTIVE UNKNOWN

§ Identity

Operator
Country
TURK
Launch date
2024-08-16
Launch site
AFWTR
Launch vehicle
Mass (kg)
RCS (m²)

External: N2YO · Heavens-Above · Gunter

§ Orbital elements

Epoch: 2026-05-25T02:33:50.855904Z

Period
94.53 min
Inclination
97.3758°
Eccentricity
0.0002438
Mean motion
15.23332022 rev/d
Perigee alt
494.1 km
Apogee alt
497.5 km
Semi-major
6,873.9 km
B*
1.5283e-4
RAAN
221.7910°
Arg perigee
43.6613°
Mean anomaly
316.4816°
Rev number
9,828

§ Raw data

CONNECTA IOT-11 60472U 24149E   26145.10683861  .00003559  00000+0  15283-3 0  99932 60472  97.3758 221.7910 0002438  43.6613 316.4816 15.23332022 98281

JSON: /api/v1/satellites/60472 · /tle

For live sub-satellite position, see the globe view (requires WebGL).

§ Visibility from observer

Set your observer location to see the next 7 days of passes ≥ 10°. The values pass through the URL so the page stays shareable.

No JS? Fill the form by hand. The geolocation button needs JavaScript.

§ Radio — SatNOGS DB

ModeDescriptionDownlinkUplink
GMSK Mode U - GMSK 4k8 AX.25 TLM 401.510 MHz
BPSK S-band telemetry 2.240 GHz
LoRa Mode U - LoRa (inactive) 869.525 MHz

3 transmitters · refreshed weekly from db.satnogs.org